| time (UTC) | temp F | wind direction | speed MPH | gust MPH | rain 1hr in | rain 24hr in | rain mn in | humidity % | barometer mb |
| 20260904013004 | 83 | 290 | 1.0 | 4.0 | 0.00 | 0.00 | 0.00 | 62 | 1017.3 |
| 20260904011533 | 83 | 310 | 2.0 | 4.0 | 0.00 | 0.00 | 0.00 | 62 | 1017.4 |
| 20260904010014 | 83 | 309 | 1.0 | 4.0 | 0.00 | 0.00 | 0.00 | 61 | 1017.6 |
| 20260904004544 | 83 | 322 | 1.0 | 2.0 | 0.00 | 0.00 | 0.00 | 62 | 1017.7 |
| 20260904003041 | 83 | 275 | 1.0 | 3.0 | 0.00 | 0.00 | 0.00 | 62 | 1017.7 |
| 20260904001535 | 83 | 319 | 0.0 | 1.0 | 0.00 | 0.00 | 0.00 | 62 | 1017.7 |
| 20260904000110 | 83 | 319 | 0.0 | 3.0 | 0.00 | 0.00 | 0.00 | 62 | 1017.7 |
| 20260903234555 | 84 | 300 | 0.0 | 3.0 | 0.00 | 0.00 | 0.00 | 62 | 1017.6 |
| 20260903233052 | 84 | 279 | 0.0 | 3.0 | 0.00 | 0.00 | 0.00 | 62 | 1017.5 |
| 20260903231519 | 84 | 308 | 0.0 | 5.0 | 0.00 | 0.00 | 0.00 | 62 | 1017.7 |
| 20260903230108 | 84 | 295 | 1.0 | 2.0 | 0.00 | 0.00 | 0.00 | 62 | 1017.8 |
| 20260903224634 | 84 | 281 | 0.0 | 3.0 | 0.00 | 0.00 | 0.00 | 63 | 1017.6 |
| 20260903223023 | 84 | 283 | 1.0 | 4.0 | 0.00 | 0.00 | 0.00 | 62 | 1017.5 |
| 20260903221506 | 84 | 290 | 1.0 | 3.0 | 0.00 | 0.00 | 0.00 | 63 | 1017.4 |
| 20260903220115 | 84 | 293 | 2.0 | 4.0 | 0.00 | 0.00 | 0.00 | 63 | 1017.5 |
| 20260903214606 | 83 | 300 | 2.0 | 4.0 | 0.00 | 0.00 | 0.00 | 64 | 1017.6 |
| 20260903213103 | 84 | 289 | 1.0 | 3.0 | 0.00 | 0.00 | 0.00 | 63 | 1017.6 |
| 20260903211558 | 84 | 305 | 1.0 | 5.0 | 0.00 | 0.00 | 0.00 | 63 | 1017.5 |
| 20260903210056 | 85 | 295 | 1.0 | 6.0 | 0.00 | 0.00 | 0.00 | 62 | 1017.4 |
| 20260903204522 | 86 | 307 | 3.0 | 6.0 | 0.00 | 0.00 | 0.00 | 59 | 1017.2 |
| 20260903203008 | 88 | 265 | 1.0 | 4.0 | 0.00 | 0.00 | 0.00 | 56 | 1017.0 |
| 20260903201534 | 89 | 262 | 0.0 | 3.0 | 0.00 | 0.00 | 0.00 | 55 | 1016.7 |
| 20260903200052 | 90 | 281 | 0.0 | 4.0 | 0.00 | 0.00 | 0.00 | 53 | 1016.5 |
| 20260903194549 | 91 | 283 | 0.0 | 5.0 | 0.00 | 0.00 | 0.00 | 52 | 1016.4 |
| 20260903193049 | 92 | 263 | 2.0 | 6.0 | 0.00 | 0.00 | 0.00 | 51 | 1016.1 |
| 20260903191550 | 93 | 269 | 2.0 | 11.0 | 0.00 | 0.00 | 0.00 | 49 | 1015.9 |
| 20260903190109 | 95 | 252 | 4.0 | 8.0 | 0.00 | 0.00 | 0.00 | 47 | 1015.8 |
| 20260903184502 | 97 | 264 | 2.0 | 8.0 | 0.00 | 0.00 | 0.00 | 43 | 1015.6 |
| 20260903183022 | 99 | 271 | 4.0 | 10.0 | 0.00 | 0.00 | 0.00 | 40 | 1015.5 |
| 20260903181535 | 104 | 265 | 4.0 | 9.0 | 0.00 | 0.00 | 0.00 | 30 | 1015.5 |
| 20260903180104 | 106 | 165 | 1.0 | 2.0 | 0.00 | 0.00 | 0.00 | 21 | 1015.6 |
| 20260903174528 | 107 | 151 | 0.0 | 3.0 | 0.00 | 0.00 | 0.00 | 19 | 1015.5 |
| 20260903173046 | 107 | 221 | 1.0 | 4.0 | 0.00 | 0.00 | 0.00 | 20 | 1015.6 |
| 20260903171544 | 108 | 240 | 0.0 | 3.0 | 0.00 | 0.00 | 0.00 | 20 | 1015.5 |
| 20260903170052 | 109 | 158 | 0.0 | 2.0 | 0.00 | 0.00 | 0.00 | 20 | 1015.6 |
| 20260903164542 | 109 | 244 | 0.0 | 3.0 | 0.00 | 0.00 | 0.00 | 20 | 1015.6 |
| 20260903163038 | 108 | 177 | 0.0 | 3.0 | 0.00 | 0.00 | 0.00 | 20 | 1015.6 |
| 20260903161536 | 107 | 195 | 0.0 | 3.0 | 0.00 | 0.00 | 0.00 | 20 | 1015.7 |
| 20260903160035 | 107 | 286 | 0.0 | 9.0 | 0.00 | 0.00 | 0.00 | 22 | 1015.7 |
| 20260903154532 | 109 | 263 | 1.0 | 4.0 | 0.00 | 0.00 | 0.00 | 20 | 1015.8 |
| 20260903153007 | 108 | 251 | 1.0 | 5.0 | 0.00 | 0.00 | 0.00 | 22 | 1016.0 |
| 20260903151602 | 106 | 210 | 2.0 | 5.0 | 0.00 | 0.00 | 0.00 | 23 | 1016.0 |
| 20260903150107 | 105 | 105 | 3.0 | 7.0 | 0.00 | 0.00 | 0.00 | 24 | 1016.1 |
| 20260903144546 | 105 | 107 | 1.0 | 5.0 | 0.00 | 0.00 | 0.00 | 25 | 1016.2 |
| 20260903143018 | 105 | 122 | 0.0 | 2.0 | 0.00 | 0.00 | 0.00 | 27 | 1016.4 |
| 20260903141538 | 103 | 74 | 1.0 | 7.0 | 0.00 | 0.00 | 0.00 | 28 | 1016.5 |
| 20260903140028 | 103 | 243 | 1.0 | 4.0 | 0.00 | 0.00 | 0.00 | 29 | 1016.7 |
| 20260903134511 | 102 | 127 | 1.0 | 5.0 | 0.00 | 0.00 | 0.00 | 30 | 1016.8 |
| 20260903133006 | 102 | 136 | 0.0 | 3.0 | 0.00 | 0.00 | 0.00 | 32 | 1016.9 |
| 20260903131530 | 101 | 8 | 0.0 | 3.0 | 0.00 | 0.00 | 0.00 | 34 | 1016.9 |
| 20260903130006 | 99 | 15 | 1.0 | 6.0 | 0.00 | 0.00 | 0.00 | 35 | 1017.0 |
| 20260903124537 | 99 | 43 | 2.0 | 6.0 | 0.00 | 0.00 | 0.00 | 34 | 1017.0 |
| 20260903123052 | 99 | 73 | 5.0 | 7.0 | 0.00 | 0.00 | 0.00 | 33 | 1017.0 |
| 20260903121600 | 98 | 79 | 4.0 | 11.0 | 0.00 | 0.00 | 0.00 | 37 | 1017.1 |
| 20260903120051 | 97 | 59 | 4.0 | 9.0 | 0.00 | 0.00 | 0.00 | 38 | 1017.2 |
| 20260903114619 | 95 | 42 | 3.0 | 9.0 | 0.00 | 0.00 | 0.00 | 41 | 1017.5 |
| 20260903113052 | 94 | 90 | 5.0 | 10.0 | 0.00 | 0.00 | 0.00 | 41 | 1017.8 |
| 20260903111613 | 93 | 69 | 5.0 | 11.0 | 0.00 | 0.00 | 0.00 | 42 | 1017.8 |
| 20260903110043 | 92 | 76 | 4.0 | 10.0 | 0.00 | 0.00 | 0.00 | 44 | 1018.0 |
| 20260903104540 | 92 | 63 | 5.0 | 10.0 | 0.00 | 0.00 | 0.00 | 45 | 1018.1 |
| 20260903103047 | 91 | 75 | 5.0 | 9.0 | 0.00 | 0.00 | 0.00 | 45 | 1018.1 |
| 20260903101527 | 90 | 78 | 4.0 | 10.0 | 0.00 | 0.00 | 0.00 | 47 | 1018.2 |
| 20260903100027 | 89 | 37 | 4.0 | 10.0 | 0.00 | 0.00 | 0.00 | 48 | 1018.1 |
| 20260903094536 | 88 | 78 | 3.0 | 11.0 | 0.00 | 0.00 | 0.00 | 48 | 1018.2 |
| 20260903093103 | 87 | 98 | 4.0 | 8.0 | 0.00 | 0.00 | 0.00 | 50 | 1018.0 |
| 20260903091544 | 86 | 54 | 3.0 | 13.0 | 0.00 | 0.00 | 0.00 | 51 | 1017.9 |
| 20260903090029 | 85 | 75 | 6.0 | 13.0 | 0.00 | 0.00 | 0.00 | 53 | 1017.6 |
| 20260903084531 | 84 | 79 | 8.0 | 16.0 | 0.00 | 0.00 | 0.00 | 53 | 1017.6 |
| 20260903083051 | 84 | 52 | 8.0 | 14.0 | 0.00 | 0.00 | 0.00 | 54 | 1017.6 |
| 20260903081542 | 83 | 44 | 5.0 | 14.0 | 0.00 | 0.00 | 0.00 | 55 | 1017.6 |
| 20260903080054 | 82 | 14 | 8.0 | 16.0 | 0.00 | 0.00 | 0.00 | 56 | 1017.7 |
| 20260903074553 | 82 | 68 | 9.0 | 15.0 | 0.00 | 0.00 | 0.00 | 57 | 1017.8 |
| 20260903073101 | 81 | 78 | 8.0 | 14.0 | 0.00 | 0.00 | 0.00 | 58 | 1017.8 |
| 20260903071626 | 80 | 51 | 4.0 | 7.0 | 0.00 | 0.00 | 0.00 | 60 | 1017.6 |
| 20260903070004 | 79 | 53 | 4.0 | 9.0 | 0.00 | 0.00 | 0.00 | 61 | 1017.5 |
| 20260903064607 | 77 | 49 | 2.0 | 6.0 | 0.00 | 0.00 | 0.00 | 63 | 1017.5 |
| 20260903063103 | 77 | 44 | 3.0 | 7.0 | 0.00 | 0.00 | 0.00 | 65 | 1017.4 |
| 20260903061554 | 76 | 85 | 3.0 | 7.0 | 0.00 | 0.00 | 0.00 | 66 | 1017.3 |
| 20260903060040 | 76 | 70 | 3.0 | 7.0 | 0.00 | 0.00 | 0.00 | 67 | 1017.0 |
| 20260903054548 | 76 | 84 | 1.0 | 5.0 | 0.00 | 0.00 | 0.00 | 68 | 1016.7 |
| 20260903053032 | 76 | 49 | 2.0 | 6.0 | 0.00 | 0.00 | 0.00 | 68 | 1016.6 |
| 20260903051538 | 77 | 32 | 0.0 | 3.0 | 0.00 | 0.00 | 0.00 | 66 | 1016.5 |
| 20260903050041 | 77 | 17 | 1.0 | 3.0 | 0.00 | 0.00 | 0.00 | 65 | 1016.4 |
| 20260903044551 | 77 | 46 | 0.0 | 0.0 | 0.00 | 0.00 | 0.00 | 66 | 1016.4 |
| 20260903043042 | 77 | 287 | 0.0 | 1.0 | 0.00 | 0.00 | 0.00 | 67 | 1016.4 |
| 20260903041558 | 77 | 287 | 0.0 | 1.0 | 0.00 | 0.00 | 0.00 | 67 | 1016.5 |
| 20260903040059 | 76 | 287 | 0.0 | 0.0 | 0.00 | 0.00 | 0.00 | 66 | 1016.7 |
| 20260903034551 | 76 | 287 | 0.0 | 0.0 | 0.00 | 0.00 | 0.00 | 65 | 1016.7 |
| 20260903033055 | 77 | 287 | 0.0 | 2.0 | 0.00 | 0.00 | 0.00 | 65 | 1016.8 |
| 20260903031554 | 78 | 267 | 0.0 | 2.0 | 0.00 | 0.00 | 0.00 | 65 | 1016.7 |
| 20260903030002 | 79 | 256 | 0.0 | 2.0 | 0.00 | 0.00 | 0.00 | 64 | 1016.6 |
| 20260903024636 | 79 | 238 | 0.0 | 1.0 | 0.00 | 0.00 | 0.00 | 64 | 1016.6 |
| 20260903023054 | 79 | 219 | 0.0 | 0.0 | 0.00 | 0.00 | 0.00 | 64 | 1016.7 |
| 20260903021559 | 79 | 221 | 0.0 | 1.0 | 0.00 | 0.00 | 0.00 | 61 | 1016.7 |
| 20260903020059 | 80 | 231 | 0.0 | 2.0 | 0.00 | 0.00 | 0.00 | 61 | 1016.6 |
| 20260903014624 | 81 | 203 | 0.0 | 1.0 | 0.00 | 0.00 | 0.00 | 60 | 1016.6 |